Location: Demmingen
(48.6757°N, 10.4375°E)
Time: 19:04:20
(UTC+00:00)

Cosmos 2151 Rocket - Pass Details

Date: 23 May 2024
Orbit: 614 x 640 km, 82.5° (Epoch: 24 June)

Event Time Altitude Azimuth Distance (km) Brightness Sun altitude
Rises 02:34:21 0° 346° (NNW) 2,945 7.5 -7.7°
Reaches altitude 10° 02:36:39 10° 342° (NNW) 2,027 6.6 -7.4°
Maximum altitude 02:41:01 53° 266° (W) 782 3.8 -6.9°
Drops below altitude 10° 02:45:19 10° 190° (S) 1,995 5.7 -6.4°
Sets 02:47:33 0° 185° (S) 2,892 6.6 -6.1°
